Orbital Elements at Epoch 2459200.5 (2020-Dec-17.0) TDB
Reference: JPL 28 (heliocentric ecliptic J2000)
Element | Value | Uncertainty (1-sigma) | Units |
e | .1344330809416319 | 3.2839e-08 | |
a | 2.198208968231316 | 6.8077e-09 | au |
q | 1.902696964078454 | 7.1157e-08 | au |
i | 5.911087816152293 | 3.4571e-06 | deg |
node | 70.24401814066304 | 3.3788e-05 | deg |
peri | 355.7332532033367 | 3.6643e-05 | deg |
M | 235.2777145378901 | 1.5813e-05 | deg |
tp | 2459612.923543742735 (2022-Feb-02.42354374) | 5.3052e-05 | TDB |
period | 1190.424591702098 3.26 | 5.53e-06 1.514e-08 | d yr |
n | .3024131074823172 | 1.4048e-09 | deg/d |
Q | 2.493720972384177 | 7.7228e-09 | au |
|
| | Orbit Determination Parameters
Additional Information
|